Hourly Data Report for October 11, 2015

All times are specified in Local Standard Time (LST). Add 1 hour to adjust for Daylight Saving Time where and when it is observed.

FREDERICTON
NEW BRUNSWICK

45°52'08.000" N
66°32'14.000" W
20.70 m
8101505
71700
YFC

Download Data

Hourly Data (October 2015)
Hourly Data Report for October 11, 2015
Temp Definition
°C
Dew Point Temp Definition
°C
Rel Hum Definition
%
Wind Dir Definition
10's deg

Wind Spd Definition
km/h
Visibility Definition
km
Stn Press Definition
kPa
Hmdx Definition


Wind Chill Definition


Weather Definition


TIME
00:00 Legend Double Dagger -0.8 -1.9 92 18 9 16.1 101.26   -4 LegendNANA
01:00 Legend Double Dagger 0.4 -1.1 90 20 8 16.1 101.22     LegendNANA
02:00 Legend Double Dagger 0.9 -0.7 89 21 5 16.1 101.17     LegendNANA
03:00 Legend Double Dagger 0.7 -0.6 91 19 8 16.1 101.12     LegendNANA
04:00 Legend Double Dagger 1.6 0.3 91 19 9 16.1 101.03     LegendNANA
05:00 Legend Double Dagger 1.9 0.3 89 19 9 16.1 101.03     LegendNANA
06:00 Legend Double Dagger 2.3 0.2 86 20 11 16.1 100.95     LegendNANA
07:00 Legend Double Dagger 2.1 0.1 86 19 15 16.1 100.90     LegendNANA
08:00 Legend Double Dagger 3.2 0.4 82 19 11 16.1 100.85     LegendNANA
09:00 Legend Double Dagger 5.5 1.9 78 17 8 16.1 100.79     LegendNANA
10:00 Legend Double Dagger 8.0 5.2 83 25 9 16.1 100.74     Rain
11:00 Legend Double Dagger 8.6 7.1 90 19 17 16.1 100.60     Rain
12:00 Legend Double Dagger 9.5 8.0 90 20 15 16.1 100.57     Rain
13:00 Legend Double Dagger 10.0 8.7 91 21 13 16.1 100.51     Rain
14:00 Legend Double Dagger 10.8 9.0 89 21 15 16.1 100.45     LegendNANA
15:00 Legend Double Dagger 11.4 9.3 87 21 13 16.1 100.41     LegendNANA
16:00 Legend Double Dagger 11.0 8.6 85 22 9 16.1 100.40     LegendNANA
17:00 Legend Double Dagger 10.7 8.8 88 LegendMM 4 16.1 100.43     LegendNANA
18:00 Legend Double Dagger 10.2 8.2 87 21 8 16.1 100.46     LegendNANA
19:00 Legend Double Dagger 9.8 8.3 90 22 8 16.1 100.51     LegendNANA
20:00 Legend Double Dagger 9.4 8.3 93   0 16.1 100.53     LegendNANA
21:00 Legend Double Dagger 9.1 8.2 94 15 4 16.1 100.55     LegendNANA
22:00 Legend Double Dagger 8.8 8.1 95 LegendMM 4 16.1 100.57     LegendNANA
23:00 Legend Double Dagger 9.0 8.1 94 20 4 16.1 100.56     LegendNANA

Notes on Data Quality.

Legend

  • E = Estimated
  • M = Missing
  • NA = Not Available
  • ‡ = Partner data that is not subject to review by the National Climate Archives
Date modified: